sat.trackr.live / text

‹ back to catalog

STARLINK-32553

NORAD 62071 · 2024-217Q

PAYLOAD ACTIVE UNKNOWN

§ Identity

Operator
Country
US
Launch date
2024-11-24
Launch site
AFWTR
Launch vehicle
Mass (kg)
RCS (m²)

Purposes: comms

External: N2YO · Heavens-Above · Gunter

§ Orbital elements

Epoch: 2026-09-21T18:43:57.681408Z

Period
93.85 min
Inclination
53.1604°
Eccentricity
0.0001179
Mean motion
15.34416909 rev/d
Perigee alt
461.8 km
Apogee alt
463.5 km
Semi-major
6,840.8 km
B*
6.7313e-4
RAAN
359.5386°
Arg perigee
82.6929°
Mean anomaly
277.4207°
Rev number
10,354

§ Raw data

STARLINK-325531 62071U 24217Q   26264.78052872  .00022447  00000+0  67313-3 0  99922 62071  53.1604 359.5386 0001179  82.6929 277.4207 15.34416909103544

JSON: /api/v1/satellites/62071 · /tle

For live sub-satellite position, see the globe view (requires WebGL).

§ Visibility from observer

Set your observer location to see the next 7 days of passes ≥ 10°. The values pass through the URL so the page stays shareable.

No JS? Fill the form by hand. The geolocation button needs JavaScript.